Time,TemperatureF,DewpointF,PressureIn,WindDirection,WindDirectionDegrees,WindSpeedMPH,WindSpeedGustMPH,Humidity,HourlyPrecipIn,Conditions,Clouds,dailyrainin,SoftwareType,DateUTC
2013-09-08 00:13:00,72.0,62.0,29.94,North,-999,0.0,-999.0,72,-99.99,,,-99.99,,2013-09-08 05:13:00,
2013-09-08 00:23:00,72.0,62.0,29.95,North,-999,0.0,-999.0,71,-99.99,,,-99.99,,2013-09-08 05:23:00,
2013-09-08 00:52:00,71.0,61.0,29.96,North,-999,0.0,-999.0,71,-99.99,,,-99.99,,2013-09-08 05:52:00,
2013-09-08 01:13:00,70.0,61.0,29.96,North,-999,0.0,-999.0,72,-99.99,,,-99.99,,2013-09-08 06:13:00,
2013-09-08 01:21:00,70.0,61.0,29.96,North,-999,0.0,-999.0,72,-99.99,,,-99.99,,2013-09-08 06:21:00,
2013-09-08 01:53:00,69.0,60.0,29.96,North,-999,0.0,-999.0,73,-99.99,,,-99.99,,2013-09-08 06:53:00,
2013-09-08 02:12:00,69.0,60.0,29.96,North,-999,0.0,-999.0,74,-99.99,,,-99.99,,2013-09-08 07:12:00,
2013-09-08 02:23:00,68.0,60.0,29.97,North,-999,0.0,-999.0,75,-99.99,,,-99.99,,2013-09-08 07:23:00,
2013-09-08 02:52:00,68.0,61.0,29.96,North,-999,0.0,-999.0,78,-99.99,,,-99.99,,2013-09-08 07:52:00,
2013-09-08 03:11:00,67.0,61.0,29.96,North,-999,0.0,-999.0,80,-99.99,,,-99.99,,2013-09-08 08:11:00,
2013-09-08 03:22:00,67.0,61.0,29.96,North,-999,0.0,-999.0,81,-99.99,,,-99.99,,2013-09-08 08:22:00,
2013-09-08 03:52:00,66.0,60.0,29.96,North,-999,0.0,-999.0,81,-99.99,,,-99.99,,2013-09-08 08:52:00,
2013-09-08 04:11:00,66.0,60.0,29.96,North,-999,0.0,-999.0,82,-99.99,,,-99.99,,2013-09-08 09:11:00,
2013-09-08 04:22:00,66.0,60.0,29.96,North,-999,0.0,-999.0,82,-99.99,,,-99.99,,2013-09-08 09:22:00,
2013-09-08 04:54:00,65.0,59.0,29.96,North,-999,0.0,-999.0,81,-99.99,,,-99.99,,2013-09-08 09:54:00,
2013-09-08 05:12:00,65.0,59.0,29.96,North,-999,0.0,-999.0,81,-99.99,,,-99.99,,2013-09-08 10:12:00,
2013-09-08 05:23:00,65.0,59.0,29.95,North,-999,0.0,-999.0,81,-99.99,,,-99.99,,2013-09-08 10:23:00,
2013-09-08 05:53:00,65.0,58.0,29.95,North,-999,0.0,-999.0,79,-99.99,,,-99.99,,2013-09-08 10:53:00,
2013-09-08 06:12:00,65.0,58.0,29.96,North,-999,0.0,-999.0,78,-99.99,,,-99.99,,2013-09-08 11:12:00,
2013-09-08 06:21:00,65.0,58.0,29.96,North,-999,0.0,-999.0,78,-99.99,,,-99.99,,2013-09-08 11:21:00,
2013-09-08 06:42:00,65.0,58.0,29.96,North,-999,0.0,-999.0,77,-99.99,,,-99.99,,2013-09-08 11:42:00,
2013-09-08 06:52:00,65.0,57.0,29.97,North,-999,0.0,-999.0,76,-99.99,,,-99.99,,2013-09-08 11:52:00,
2013-09-08 07:12:00,65.0,57.0,29.97,North,-999,0.0,-999.0,76,-99.99,,,-99.99,,2013-09-08 12:12:00,
2013-09-08 07:22:00,65.0,57.0,29.96,North,-999,0.0,-999.0,76,-99.99,,,-99.99,,2013-09-08 12:22:00,
2013-09-08 07:52:00,66.0,58.0,29.96,North,-999,0.0,-999.0,76,-99.99,,,-99.99,,2013-09-08 12:52:00,
2013-09-08 08:12:00,66.0,58.0,29.97,North,-999,0.0,-999.0,76,-99.99,,,-99.99,,2013-09-08 13:12:00,
2013-09-08 08:22:00,66.0,58.0,29.98,North,-999,0.0,-999.0,76,-99.99,,,-99.99,,2013-09-08 13:22:00,
2013-09-08 08:42:00,66.0,58.0,29.98,North,-999,0.0,-999.0,76,-99.99,,,-99.99,,2013-09-08 13:42:00,
2013-09-08 08:52:00,66.0,59.0,29.98,North,-999,0.0,-999.0,77,-99.99,,,-99.99,,2013-09-08 13:52:00,
2013-09-08 09:11:00,66.0,59.0,29.98,North,-999,0.0,-999.0,78,-99.99,,,-99.99,,2013-09-08 14:11:00,
2013-09-08 09:22:00,67.0,60.0,29.97,North,-999,0.0,-999.0,78,-99.99,,,-99.99,,2013-09-08 14:22:00,
2013-09-08 09:42:00,67.0,60.0,29.97,North,-999,0.0,-999.0,77,-99.99,,,-99.99,,2013-09-08 14:42:00,
2013-09-08 09:52:00,67.0,59.0,29.97,North,-999,0.0,-999.0,76,-99.99,,,-99.99,,2013-09-08 14:52:00,
2013-09-08 10:12:00,68.0,60.0,29.98,North,-999,0.0,-999.0,75,-99.99,,,-99.99,,2013-09-08 15:12:00,
2013-09-08 10:23:00,69.0,61.0,29.97,North,-999,0.0,-999.0,75,-99.99,,,-99.99,,2013-09-08 15:23:00,
2013-09-08 10:45:00,69.0,61.0,29.97,North,-999,0.0,-999.0,75,-99.99,,,-99.99,,2013-09-08 15:45:00,
2013-09-08 10:54:00,69.0,61.0,29.97,North,-999,0.0,-999.0,77,-99.99,,,-99.99,,2013-09-08 15:54:00,
2013-09-08 11:14:00,69.0,62.0,29.97,North,-999,0.0,-999.0,78,-99.99,,,-99.99,,2013-09-08 16:14:00,
2013-09-08 11:23:00,69.0,62.0,29.97,North,-999,0.0,-999.0,78,-99.99,,,-99.99,,2013-09-08 16:23:00,
2013-09-08 11:44:00,69.0,62.0,29.97,North,-999,0.0,-999.0,78,-99.99,,,-99.99,,2013-09-08 16:44:00,
2013-09-08 11:53:00,68.0,61.0,29.97,North,-999,0.0,-999.0,78,-99.99,,,-99.99,,2013-09-08 16:53:00,
2013-09-08 12:12:00,68.0,62.0,29.97,North,-999,0.0,-999.0,80,-99.99,,,-99.99,,2013-09-08 17:12:00,
2013-09-08 12:23:00,69.0,62.0,29.97,North,-999,0.0,-999.0,79,-99.99,,,-99.99,,2013-09-08 17:23:00,
2013-09-08 12:53:00,70.0,63.0,29.96,North,-999,0.0,-999.0,78,-99.99,,,-99.99,,2013-09-08 17:53:00,
2013-09-08 13:13:00,70.0,63.0,29.97,North,-999,0.0,-999.0,79,-99.99,,,-99.99,,2013-09-08 18:13:00,
2013-09-08 13:22:00,71.0,63.0,29.95,North,-999,0.0,-999.0,76,-99.99,,,-99.99,,2013-09-08 18:22:00,
2013-09-08 13:52:00,71.0,64.0,29.94,North,-999,0.0,-999.0,79,-99.99,,,-99.99,,2013-09-08 18:52:00,
2013-09-08 14:12:00,72.0,65.0,29.95,North,-999,0.0,-999.0,78,-99.99,,,-99.99,,2013-09-08 19:12:00,
2013-09-08 14:22:00,72.0,65.0,29.93,North,-999,0.0,-999.0,78,-99.99,,,-99.99,,2013-09-08 19:22:00,
2013-09-08 14:52:00,72.0,64.0,29.89,North,-999,0.0,-999.0,77,-99.99,,,-99.99,,2013-09-08 19:52:00,
2013-09-08 15:11:00,72.0,64.0,29.90,North,-999,0.0,-999.0,77,-99.99,,,-99.99,,2013-09-08 20:11:00,
2013-09-08 15:22:00,73.0,65.0,29.89,North,-999,0.0,-999.0,77,-99.99,,,-99.99,,2013-09-08 20:22:00,
2013-09-08 15:42:00,73.0,63.0,29.89,North,-999,0.0,-999.0,72,-99.99,,,-99.99,,2013-09-08 20:42:00,
2013-09-08 15:53:00,75.0,65.0,29.89,North,-999,0.0,-999.0,70,-99.99,,,-99.99,,2013-09-08 20:53:00,
2013-09-08 16:22:00,76.0,65.0,29.87,North,-999,0.0,-999.0,69,-99.99,,,-99.99,,2013-09-08 21:22:00,
2013-09-08 16:54:00,75.0,64.0,29.87,North,-999,0.0,-999.0,69,-99.99,,,-99.99,,2013-09-08 21:54:00,
2013-09-08 17:13:00,75.0,65.0,29.87,North,-999,0.0,-999.0,70,-99.99,,,-99.99,,2013-09-08 22:13:00,
2013-09-08 17:24:00,74.0,64.0,29.87,North,-999,0.0,-999.0,70,-99.99,,,-99.99,,2013-09-08 22:24:00,
2013-09-08 17:53:00,73.0,63.0,29.86,North,-999,0.0,-999.0,72,-99.99,,,-99.99,,2013-09-08 22:53:00,
2013-09-08 18:12:00,72.0,62.0,29.86,North,-999,0.0,-999.0,72,-99.99,,,-99.99,,2013-09-08 23:12:00,
2013-09-08 18:22:00,72.0,63.0,29.86,North,-999,0.0,-999.0,73,-99.99,,,-99.99,,2013-09-08 23:22:00,
2013-09-08 18:52:00,72.0,63.0,29.85,North,-999,0.0,-999.0,74,-99.99,,,-99.99,,2013-09-08 23:52:00,
2013-09-08 19:11:00,72.0,63.0,29.85,North,-999,0.0,-999.0,74,-99.99,,,-99.99,,2013-09-09 00:11:00,
2013-09-08 19:22:00,72.0,63.0,29.85,North,-999,0.0,-999.0,74,-99.99,,,-99.99,,2013-09-09 00:22:00,
2013-09-08 19:42:00,72.0,64.0,29.85,North,-999,0.0,-999.0,75,-99.99,,,-99.99,,2013-09-09 00:42:00,
2013-09-08 19:52:00,72.0,64.0,29.85,North,-999,0.0,-999.0,75,-99.99,,,-99.99,,2013-09-09 00:52:00,
2013-09-08 20:12:00,72.0,64.0,29.85,North,-999,0.0,-999.0,76,-99.99,,,-99.99,,2013-09-09 01:12:00,
2013-09-08 20:21:00,71.0,61.0,29.85,North,-999,0.0,-999.0,70,-99.99,,,-99.99,,2013-09-09 01:21:00,
2013-09-08 20:52:00,69.0,60.0,29.85,North,-999,0.0,-999.0,74,-99.99,,,-99.99,,2013-09-09 01:52:00,
2013-09-08 21:11:00,69.0,61.0,29.86,North,-999,0.0,-999.0,75,-99.99,,,-99.99,,2013-09-09 02:11:00,
2013-09-08 21:22:00,69.0,61.0,29.85,North,-999,0.0,-999.0,76,-99.99,,,-99.99,,2013-09-09 02:22:00,
2013-09-08 21:42:00,69.0,61.0,29.85,North,-999,0.0,-999.0,77,-99.99,,,-99.99,,2013-09-09 02:42:00,
2013-09-08 21:52:00,69.0,62.0,29.85,North,-999,0.0,-999.0,78,-99.99,,,-99.99,,2013-09-09 02:52:00,
2013-09-08 22:22:00,69.0,62.0,29.84,North,-999,0.0,-999.0,79,-99.99,,,-99.99,,2013-09-09 03:22:00,
2013-09-08 22:55:00,71.0,65.0,29.84,North,-999,0.0,-999.0,82,-99.99,,,-99.99,,2013-09-09 03:55:00,
2013-09-08 23:14:00,71.0,65.0,29.84,North,-999,0.0,-999.0,81,-99.99,,,-99.99,,2013-09-09 04:14:00,
2013-09-08 23:24:00,71.0,65.0,29.84,North,-999,0.0,-999.0,81,-99.99,,,-99.99,,2013-09-09 04:24:00,
2013-09-08 23:54:00,71.0,65.0,29.83,North,-999,0.0,-999.0,82,-99.99,,,-99.99,,2013-09-09 04:54:00,